EHI
0 0 0 0 0 0 0 0 0 0 0 0 0 0 0 0 0 0 0 0 0 0 0 0 0 0 0 0 0 0 0 0 0 0 0 0 0 0 0 0 0 0 0 0
0 0 0 0 0 0 0 0 0 0 0 0 0 0 0 0 0 0 0 0 0 0 0 0 0 0 0 0 0 0 0 0 0 0 0 0 0 0 0 0 0 0 0 0
0 0 0 0 0 0 0 0 0 0 0 0 0 0 0 0 0 0 0 0 0 0 0 0 0 0 0 0 0 0 0 0 0 0 0 0 0 0 0 0 0 0 0 0
0 0 0 0 0 0 0 0 0 0 0 0 0 0 0 0 0 0 0 0 0 0 0 0 0 0 0 0 0 0 0 0 0 0 0 0 0 0 0 0 0 0 0 0
0 0 0 0 0 0 0 0 0 0 0 0 0 0 0 0 0 0 0 0 0 0 0 0 0 0 0 0 0 0 0 0 0 0 0 0 0 0 0 0 0 0 0 0
0 0 0 0 0 0 0 0 0 0 0 0 0 0 0 0 0 0 0 0 0 0 0 0 0 0 0 0 0 0 0 0 0 0 0 0 0 0 0 0 0 0 0 0
0 0 0 0 0 0 0 0 0 0 0 0 0 0 0 0 0 0 0 0 0 0 0 0 0 0 0 0 0 0 0 0 0 0 0 0 0 0 0 0 0 0 0 0
0 0 0 0 0 0 0 0 0 0 0 0 0 0 0 0 0 0 0 0 0 0 0 0 0 0 0 0 0 0 0 0 0 0 0 0 0 0 0 0 0 0 0 0
0 0 0 0 0 0 0 0 0 0 0 0 0 0 0 0 0 0 0 0 0 0 0 0 0 0 0 0 0 0 0 0 0 0 0 0 0 0 0 0 0 0 0 0
0 0 0 0 0 0 0 0 0 0 0 0 0 0 0 0 0 0 0 0 0 0 0 0 0 0 0 0 0 0 0 0 0 0 0 0 0 0 0 0 0 0 0 0
0 0 0 0 0 0 0 0 0 0 0 0 0 0 0 0 0 0 0 0 0 0 0 0 0 0 0 0 0 0 0 0 0 0 0 0 0 0 0 0 0 0 0 0
0 0 0 0 0 0 0 0 0 0 0 0 0 0 0 0 0 0 0 0 0 0 0 0 0 0 0 0 0 0 0 0 0 0 0 0 0 0 0 0 0 0 0 0
0 0 0 0 0 0 0 0 0 0 0 0 0 0 0 0 0 0 0 0 0 0 0 0 0 0 0 0 0 0 0 0 0 0 0 0 0 0 0 0 0 0 0 0
0 0 0 0 0 0 0 0 0 0 0 0 0 0 0 0 0 0 0 0 0 0 0 0 0 0 0 0 0 0 0 0 0 0 0 0 0 0 0 0 0 0 0 0
0 0 0 0 0 0 0 0 0 0 0 0 0 0 0 0 0 0 0 0 0 0 0 0 0 0 0 0 0 0 0 0 0 0 0 0 0 0 0 0 0 0 0 0
0 0 0 0 0 0 0 0 0 0 0 0 0 0 0 0 0 0 0 0 0 0 0 0 0 0 0 0 0 0 0 0 0 0 0 0 0 0 0 0 0 0 0 0
0 0 0 0 0 0 0 0 0 0 0 0 0 0 0 0 0 0 0 0 0 0 0 0 0 0 0 0 0 0 0 0 0 0 0 0 0 0 0 0 0 0 0 0
0 0 0 0 0 0 0 0 0 0 0 0 0 0 0 0 0 0 0 0 0 0 0 0 0 0 0 0 0 0 0 0 0 0 0 0 0 0 0 0 0 0 0 0
0 0 0 0 0 0 0 0 0 0 0 0 0 0 0 0 0 0 0 0 0 0 0 0 0 0 0 0 0 0 0 0 0 0 0 0 0 0 0 0 0 0 0 0
0 0 0 0 0 0 0 0 0 0 0 0 0 0 0 0 0 0 0 0 0 0 0 0 0 0 0 0 0 0 0 0 0 0 0 0 0 0 0 0 0 0 0 0
0 0 0 0 0 0 0 0 0 0 0 0 0 0 0 0 0 0 0 0 0 0 0 0 0 0 0 0 0 0 0 0 0 0 0 0 0 0 0 0 0 0 0 0
0 0 0 0 0 0 0 0 0 0 0 0 0 0 0 0 0 0 0 0 0 0 0 0 0 0 0 0 0 0 0 0 0 0 0 0 0 0 0 0 0 0 0 0
0 0 0 0 0 0 0 0 0 0 0 0 0 0 0 0 0 0 0 0 0 0 0 0 0 0 0 0 0 0 0 0 0 0 0 0 0 0 0 0 0 0 0 0
0 0 0 0 0 0 0 0 0 0 0 0 0 0 0 0 0 0 0 0 0 0 0 0 0 0 0 0 0 0 0 0 0 0 0 0 0 0 0 0 0 0 0 0
0 0 0 0 0 0 0 0 0 0 0 0 0 0 0 0 0 0 0 0 0 0 0 0 0 0 0 0 0 0 0 0 0 0 0 0 0 0 0 0 0 0 0 0
0 0 0 0 0 0 0 0 0 0 0 0 0 0 0 0 0 0 0 0 0 0 0 0 0 0 0 0 0 0 0 0 0 0 0 0 0 0 0 0 0 0 0 0
0 0 0 0 0 0 0 0 0 0 0 0 0 0 0 0 0 0 0 0 0 0 0 0 0 0 0 0 0 0 0 0 0 0 0 0 0 0 0 0 0 0 0 0
Wind_Speed
7 5 1 1 2 2 2 3 5 2 4 1 4 5 6 6 6 7 9 10 10 9 9 9 9 9 9 10 10 11 11 10 10 9 8 7 7 6 5 4 4 3 2 2
4 3 2 1 3 3 3 3 3 5 2 2 4 4 6 7 8 9 10 10 10 10 10 11 11 11 11 11 11 11 11 11 10 9 7 8 7 6 6 5 4 3 2 1
4 2 2 2 4 2 3 3 2 1 2 6 7 9 10 9 8 9 10 12 12 12 11 11 11 10 10 10 10 10 11 11 10 9 8 8 8 7 7 6 5 4 3 2
1 1 2 1 3 5 5 3 3 3 5 7 8 11 11 7 5 8 11 12 13 12 11 11 11 10 10 10 10 10 11 11 10 9 9 8 7 8 8 6 6 5 5 4
2 1 1 2 2 3 2 0 3 4 8 9 9 8 6 4 5 8 11 12 12 12 12 11 12 12 11 11 11 11 11 11 11 10 10 9 8 9 8 7 7 6 5 6
2 0 1 2 6 6 1 1 2 5 8 9 8 7 7 7 10 13 14 12 12 11 11 11 12 10 10 12 12 12 12 11 11 10 10 10 10 9 7 7 8 7 7 7
2 1 2 4 9 7 1 4 6 7 8 9 7 9 11 12 14 14 14 15 14 12 11 11 11 10 11 12 13 13 12 11 11 10 10 11 9 8 7 8 8 8 8 7
3 3 2 6 6 3 4 6 6 8 9 10 11 13 14 14 14 13 14 14 13 11 12 11 10 10 12 13 14 12 12 12 12 11 10 10 8 9 8 9 10 10 9 7
2 1 2 3 3 5 5 7 8 7 11 12 13 14 15 14 14 14 14 14 12 12 12 11 10 10 13 14 13 12 12 12 12 11 10 9 8 9 8 8 9 9 9 9
2 1 4 6 6 6 6 8 10 11 13 12 14 16 16 15 14 14 14 13 12 12 12 13 12 12 13 14 12 12 13 12 11 10 10 9 7 7 7 8 9 10 11 10
1 4 7 6 6 7 8 10 12 12 12 13 14 16 16 15 14 14 14 13 12 12 13 15 14 13 14 13 12 12 12 12 11 10 10 9 8 7 8 9 11 12 12 12
4 5 5 8 9 10 11 12 14 15 14 14 14 16 17 16 15 14 14 14 13 14 14 15 14 14 14 13 11 12 11 11 9 8 8 8 7 8 11 12 14 16 15 14
5 5 6 10 10 10 10 13 15 15 16 17 16 16 16 16 15 14 14 15 15 15 15 15 14 15 14 12 11 11 11 11 8 8 8 8 7 7 7 7 11 15 16 17
7 6 7 9 11 13 14 16 15 14 14 15 16 16 16 16 15 16 16 16 16 15 15 14 15 15 14 12 11 12 11 12 11 8 8 8 7 7 7 6 7 7 10 15
8 6 9 11 11 13 14 13 15 16 16 16 15 15 16 17 17 17 16 16 15 15 15 15 15 16 13 11 11 11 10 8 8 8 8 8 7 7 7 7 8 8 8 9
9 10 11 12 14 15 15 15 16 16 16 16 15 15 16 16 17 17 16 15 15 16 16 15 16 15 12 11 11 9 8 14 12 8 8 8 7 6 6 6 8 9 11 11
7 9 10 13 14 15 15 15 15 15 15 16 16 17 16 16 17 17 17 16 15 16 16 15 15 14 12 11 10 8 7 9 13 10 7 7 6 6 6 6 8 10 10 13
9 11 12 13 14 16 16 15 15 15 15 16 17 16 17 17 18 19 19 18 17 17 16 14 13 12 11 11 9 7 7 7 7 7 6 6 5 5 5 6 9 11 10 11
11 11 12 14 14 14 14 15 16 14 15 16 17 17 18 18 18 18 18 18 17 17 15 13 15 13 11 11 11 6 7 7 7 6 6 6 6 5 5 6 9 10 11 11
11 12 13 14 14 14 15 15 15 16 16 16 17 18 18 19 18 18 18 17 14 13 13 13 13 11 10 9 11 6 6 7 7 6 5 5 5 4 5 7 9 10 11 11
12 13 14 14 14 14 14 15 15 17 17 17 17 18 19 19 19 17 16 15 14 13 13 14 11 9 7 7 8 5 5 5 5 5 5 5 4 4 6 8 9 10 10 10
11 12 13 14 14 15 14 13 14 16 18 18 18 19 19 19 18 16 15 12 12 14 12 9 8 9 9 8 5 5 5 5 5 4 4 4 3 5 7 8 9 9 9 9
10 11 12 13 14 16 16 14 15 16 17 19 19 19 18 17 14 13 14 11 11 14 11 9 9 11 11 5 4 4 4 5 4 4 4 3 3 5 7 9 8 9 9 9
10 11 11 12 13 13 15 17 17 15 17 17 17 17 17 14 12 10 11 14 15 15 10 9 10 10 8 3 3 3 3 4 3 3 2 2 2 4 6 7 8 8 8 10
10 10 10 13 13 12 13 16 17 17 16 15 17 17 14 11 12 13 12 13 14 12 9 8 9 8 4 2 2 2 3 3 2 2 1 1 2 4 6 7 7 8 8 8
8 9 10 11 11 11 12 12 13 14 14 15 15 14 13 12 12 11 10 12 13 11 8 6 5 4 3 2 1 1 1 1 2 1 2 2 3 5 6 6 9 7 7 7
9 8 8 10 9 10 11 12 13 15 14 15 16 15 14 13 12 12 12 10 9 8 7 5 4 3 2 1 1 0 0 1 1 1 1 2 4 5 6 7 6 6 6 6
Wind_Direction
236 245 213 248 319 2 181 218 223 228 125 4 327 322 325 334 343 353 356 358 355 348 341 337 338 336 336 333 333 331 324 314 300 283 260 247 239 235 235 238 249 260 275 301
278 277 187 126 23 36 43 26 68 93 88 326 315 319 329 335 342 348 345 343 339 337 334 331 329 327 327 325 325 325 321 313 308 301 275 251 241 233 227 227 231 234 241 249
265 298 88 22 355 62 72 29 48 81 340 333 336 335 326 321 328 333 332 331 328 325 318 313 310 308 309 309 313 317 317 314 312 309 294 269 246 232 226 220 211 213 214 192
259 28 236 74 43 87 104 77 51 28 340 333 320 309 297 287 305 319 321 317 310 303 300 298 294 293 293 298 303 308 312 314 312 311 305 290 259 237 227 213 203 202 199 183
104 165 134 118 36 20 337 237 46 346 325 321 317 307 293 276 290 297 297 293 290 287 287 288 289 290 293 295 297 299 301 305 308 304 301 297 276 249 227 210 202 194 186 177
88 323 314 10 328 327 279 209 32 326 312 313 324 317 291 290 298 300 298 295 291 289 287 285 285 287 286 288 289 289 290 293 297 296 292 289 283 262 231 212 205 189 184 180
53 28 70 324 314 326 334 307 306 300 295 296 286 268 277 288 293 291 292 293 293 292 289 284 287 290 286 286 282 281 284 286 290 290 289 282 279 269 237 213 198 183 182 179
19 16 354 336 6 36 269 275 283 289 288 285 282 285 290 293 291 290 292 291 290 288 286 286 287 288 287 285 283 285 285 283 283 284 288 291 281 275 245 212 196 183 176 175
62 95 255 280 256 258 262 280 285 283 285 290 291 291 293 291 289 289 287 286 284 280 282 284 281 278 281 282 284 285 284 280 280 282 281 281 277 275 250 214 196 185 180 180
63 313 279 281 275 273 272 270 277 281 285 288 287 288 289 289 287 285 282 281 280 278 279 281 279 276 274 279 283 282 281 280 278 279 279 279 270 267 245 218 199 187 184 181
317 279 296 295 284 282 290 292 292 292 290 285 285 287 286 287 286 283 281 279 275 273 273 277 280 277 277 279 281 279 279 279 277 272 272 276 271 263 244 228 206 193 188 182
237 248 250 271 279 290 292 289 291 292 291 285 283 284 286 287 285 284 283 282 280 276 274 277 279 279 279 278 276 274 277 277 273 271 272 269 275 275 248 233 213 204 192 180
241 260 256 270 281 282 279 281 288 288 286 289 288 285 285 285 287 285 285 285 282 279 278 279 281 280 280 279 275 271 271 273 272 269 269 268 270 272 264 238 209 197 188 177
258 269 280 276 281 288 288 288 290 287 285 284 287 289 289 289 290 290 290 288 285 283 282 282 283 282 282 279 275 273 271 273 272 265 264 263 260 263 256 226 194 183 183 176
281 271 266 279 286 288 290 292 296 296 295 294 293 293 294 294 294 293 291 291 289 286 285 286 286 285 284 280 275 273 272 270 268 265 263 260 255 258 253 222 193 174 158 165
289 295 292 292 293 295 300 300 299 297 297 299 299 297 295 294 293 293 294 294 292 290 289 288 287 287 287 283 278 275 270 272 275 269 264 258 249 254 247 212 187 174 170 163
293 293 294 297 299 298 298 296 296 297 299 300 300 299 298 297 297 298 298 296 292 289 287 286 287 288 288 285 277 273 269 271 276 276 262 253 244 253 239 205 185 173 170 164
273 276 283 288 296 301 302 301 300 300 299 298 300 301 301 301 300 301 301 300 297 293 290 287 286 288 287 284 277 268 265 265 265 266 263 255 248 251 224 198 180 168 158 156
298 295 297 298 298 299 299 300 301 300 299 301 303 302 301 299 298 299 300 299 297 296 294 290 289 290 288 283 283 266 264 266 267 262 258 255 248 233 207 189 171 162 156 158
300 299 300 299 299 300 301 301 302 303 304 305 303 303 303 302 302 302 300 297 292 288 290 293 294 290 286 282 286 271 266 266 267 262 259 257 244 216 196 176 163 159 159 164
301 302 303 303 304 302 301 303 305 306 307 306 304 304 304 304 304 303 301 299 297 295 296 294 291 285 281 279 283 272 266 262 262 258 259 258 240 201 177 163 160 160 162 165
299 302 305 307 308 308 309 307 305 307 309 309 309 308 308 307 307 305 297 294 297 299 300 297 292 283 280 280 271 267 262 258 260 258 258 252 224 178 165 160 159 160 162 163
300 302 305 308 309 309 309 311 312 313 312 312 311 311 310 307 306 306 307 306 305 305 304 299 295 292 289 281 266 260 255 253 255 255 247 240 200 171 164 160 159 159 159 161
303 305 305 305 308 311 315 318 317 314 312 310 309 310 310 310 308 304 300 303 305 306 306 302 301 300 296 277 260 250 245 246 252 249 237 221 186 163 158 158 158 159 160 161
304 305 309 317 322 320 316 317 318 318 318 317 315 315 313 310 309 311 310 310 312 312 311 309 308 307 298 278 258 242 238 239 244 240 219 185 167 160 156 157 160 161 162 164
308 311 311 310 310 313 317 319 319 319 320 319 319 319 319 318 315 314 316 318 320 318 314 310 311 308 304 297 275 249 239 238 240 223 198 179 162 154 154 159 162 164 164 166
309 309 313 319 320 319 320 319 319 320 320 320 321 320 322 324 324 326 326 326 327 327 327 327 326 330 336 335 320 296 249 215 209 197 170 154 148 149 153 155 159 158 159 163